GFSMW_500_temp_180.txt.gz
Temp
-13 -13 -13 -14 -14 -14 -14 -14 -14 -14 -14 -14 -15 -15 -15 -15 -15 -16 -16 -16 -16 -16 -16 -16 -16 -16 -16 -16 -16 -16 -17 -17 -17 -17 -17 -17 -17 -17 -17 -16 -16 -15 -15
-14 -14 -14 -15 -15 -15 -15 -15 -15 -15 -14 -14 -15 -15 -15 -15 -16 -16 -16 -16 -16 -16 -17 -17 -17 -17 -17 -18 -18 -18 -18 -18 -18 -18 -18 -18 -18 -18 -18 -18 -17 -17 -17
-15 -15 -15 -16 -16 -16 -16 -16 -15 -15 -15 -15 -15 -16 -16 -16 -17 -17 -17 -17 -17 -17 -18 -18 -18 -18 -18 -18 -18 -19 -19 -19 -19 -19 -19 -19 -19 -18 -18 -18 -18 -17 -17
-15 -15 -16 -16 -16 -16 -16 -16 -16 -16 -16 -16 -17 -17 -17 -18 -18 -18 -18 -18 -18 -18 -19 -19 -19 -19 -20 -20 -20 -20 -20 -20 -21 -21 -20 -21 -21 -20 -20 -20 -19 -18 -18
-15 -16 -16 -16 -16 -16 -17 -17 -17 -17 -17 -17 -18 -18 -18 -18 -18 -18 -18 -19 -19 -19 -19 -20 -20 -21 -21 -21 -21 -21 -21 -21 -21 -21 -21 -21 -22 -21 -21 -21 -20 -20 -20
-16 -17 -17 -17 -17 -17 -17 -17 -18 -18 -18 -18 -18 -19 -19 -19 -19 -19 -19 -19 -19 -20 -20 -21 -21 -21 -21 -21 -21 -21 -21 -21 -22 -22 -22 -21 -21 -21 -21 -21 -21 -21 -20
-17 -18 -18 -18 -18 -18 -18 -18 -18 -19 -19 -19 -19 -19 -20 -20 -19 -19 -19 -19 -20 -20 -21 -21 -21 -21 -21 -21 -21 -21 -21 -22 -22 -22 -21 -22 -22 -21 -21 -22 -21 -21 -21
-19 -19 -19 -19 -19 -19 -19 -19 -19 -19 -19 -19 -20 -20 -20 -20 -19 -19 -20 -20 -21 -21 -21 -21 -21 -21 -21 -21 -21 -21 -21 -21 -21 -21 -21 -21 -21 -22 -22 -22 -22 -22 -22
-20 -20 -19 -19 -19 -20 -20 -20 -20 -20 -20 -20 -20 -20 -20 -20 -20 -21 -21 -21 -21 -21 -22 -21 -21 -21 -21 -21 -21 -21 -21 -22 -23 -23 -23 -23 -23 -23 -23 -23 -22 -22 -22
-20 -20 -20 -20 -21 -21 -21 -21 -21 -21 -21 -21 -21 -20 -20 -21 -21 -21 -21 -22 -22 -22 -22 -22 -22 -22 -22 -22 -22 -22 -22 -23 -23 -23 -24 -24 -24 -24 -24 -24 -24 -23 -23
-20 -20 -20 -20 -20 -22 -22 -22 -22 -22 -21 -22 -21 -21 -21 -22 -22 -22 -22 -22 -22 -22 -22 -22 -22 -22 -23 -23 -23 -23 -23 -23 -24 -24 -24 -24 -24 -24 -24 -24 -24 -24 -24
-21 -20 -21 -21 -21 -21 -22 -23 -22 -22 -22 -21 -21 -22 -22 -22 -22 -22 -22 -22 -22 -23 -23 -22 -23 -23 -23 -23 -23 -24 -24 -24 -24 -25 -25 -25 -25 -25 -25 -25 -25 -25 -24
-21 -21 -21 -22 -22 -23 -23 -22 -22 -22 -21 -22 -22 -22 -22 -22 -22 -22 -22 -22 -23 -23 -23 -23 -23 -23 -23 -24 -24 -24 -24 -24 -24 -25 -25 -25 -25 -25 -25 -25 -25 -25 -25
-21 -21 -22 -22 -23 -23 -23 -23 -22 -22 -22 -22 -22 -22 -22 -22 -22 -22 -23 -23 -23 -23 -23 -24 -24 -24 -24 -24 -24 -24 -24 -24 -25 -25 -25 -25 -25 -25 -25 -25 -25 -25 -25
-21 -22 -22 -23 -22 -22 -22 -22 -22 -22 -22 -23 -23 -22 -23 -23 -23 -23 -23 -23 -24 -24 -24 -24 -24 -24 -24 -24 -25 -25 -25 -25 -25 -25 -25 -25 -25 -26 -25 -25 -25 -25 -25
-22 -22 -23 -22 -22 -22 -22 -22 -22 -23 -23 -23 -23 -23 -23 -23 -23 -23 -24 -24 -24 -25 -24 -24 -24 -24 -24 -25 -25 -25 -25 -25 -25 -25 -26 -26 -26 -26 -26 -25 -25 -25 -25
-22 -22 -22 -22 -22 -22 -22 -23 -23 -23 -23 -23 -23 -23 -23 -23 -23 -24 -24 -24 -24 -24 -25 -25 -25 -25 -25 -25 -25 -25 -25 -25 -25 -25 -25 -26 -26 -26 -26 -25 -25 -25 -25
-22 -22 -22 -22 -22 -23 -23 -23 -23 -23 -23 -23 -23 -23 -23 -23 -24 -24 -24 -25 -25 -25 -25 -25 -25 -25 -25 -25 -25 -25 -25 -25 -25 -25 -25 -25 -26 -26 -26 -25 -25 -25 -25
-23 -23 -23 -23 -23 -23 -23 -23 -23 -23 -23 -23 -23 -23 -24 -24 -24 -24 -24 -25 -25 -25 -25 -25 -25 -25 -25 -25 -25 -25 -26 -26 -26 -26 -26 -25 -26 -26 -26 -25 -25 -25 -25
-24 -24 -24 -24 -23 -23 -23 -23 -23 -23 -23 -23 -23 -24 -24 -24 -24 -24 -24 -24 -24 -25 -25 -25 -25 -25 -25 -25 -25 -25 -26 -26 -26 -26 -26 -26 -26 -25 -25 -26 -26 -26 -25
-24 -24 -24 -23 -23 -23 -23 -23 -23 -23 -23 -23 -24 -24 -24 -24 -24 -23 -24 -24 -24 -24 -25 -25 -25 -25 -25 -25 -25 -26 -26 -26 -26 -26 -26 -26 -26 -26 -26 -26 -26 -26 -26
-24 -24 -23 -23 -23 -23 -23 -23 -23 -24 -24 -24 -24 -24 -24 -24 -23 -23 -24 -23 -24 -24 -24 -25 -25 -25 -25 -25 -26 -26 -26 -26 -26 -26 -26 -26 -26 -26 -26 -26 -27 -27 -27
-24 -24 -23 -23 -23 -24 -24 -24 -24 -24 -24 -24 -24 -24 -24 -23 -23 -23 -24 -24 -24 -24 -24 -25 -25 -25 -25 -26 -26 -26 -26 -26 -26 -26 -26 -26 -26 -27 -27 -27 -27 -27 -27
-24 -24 -24 -23 -23 -24 -24 -25 -24 -24 -24 -24 -24 -24 -24 -23 -24 -24 -24 -24 -24 -24 -24 -25 -25 -25 -26 -26 -26 -26 -26 -26 -27 -27 -27 -27 -27 -27 -27 -27 -27 -27 -27
-24 -24 -24 -24 -24 -24 -24 -25 -24 -24 -24 -24 -24 -24 -24 -24 -24 -24 -24 -24 -24 -24 -25 -25 -25 -25 -26 -26 -26 -26 -27 -27 -27 -27 -27 -27 -27 -27 -27 -27 -27 -27 -27
-24 -24 -24 -24 -24 -24 -24 -24 -24 -24 -24 -24 -24 -24 -24 -24 -24 -24 -24 -24 -24 -25 -25 -25 -25 -26 -26 -26 -26 -26 -27 -27 -27 -27 -27 -27 -27 -27 -28 -28 -28 -28 -28

GFSMW_500_temp_183.txt.gz
Temp
-13 -13 -13 -13 -14 -14 -14 -14 -14 -14 -14 -14 -14 -15 -15 -15 -15 -15 -15 -15 -16 -16 -16 -16 -16 -16 -16 -16 -16 -16 -16 -16 -16 -17 -17 -17 -17 -17 -17 -17 -17 -17 -17
-13 -13 -14 -14 -14 -15 -15 -15 -15 -15 -15 -15 -15 -15 -15 -15 -15 -16 -16 -16 -16 -17 -17 -17 -17 -17 -17 -17 -17 -17 -17 -17 -17 -17 -18 -18 -18 -18 -19 -18 -18 -18 -18
-13 -13 -14 -15 -15 -15 -15 -15 -16 -16 -16 -16 -16 -16 -16 -16 -16 -16 -17 -17 -17 -17 -17 -17 -17 -17 -17 -17 -17 -17 -18 -18 -18 -19 -20 -20 -21 -20 -20 -21 -20 -20 -19
-14 -14 -15 -15 -16 -16 -16 -17 -17 -17 -17 -17 -17 -17 -17 -17 -17 -17 -18 -18 -18 -18 -18 -18 -17 -17 -18 -18 -18 -19 -20 -20 -20 -21 -21 -21 -21 -22 -22 -21 -21 -21 -20
-15 -15 -15 -16 -16 -16 -17 -17 -18 -18 -18 -18 -18 -18 -18 -18 -18 -18 -18 -18 -18 -18 -18 -18 -18 -19 -19 -20 -20 -21 -21 -21 -21 -21 -21 -21 -21 -21 -22 -22 -21 -21 -21
-17 -16 -16 -16 -17 -17 -18 -18 -18 -18 -19 -19 -19 -19 -19 -19 -19 -19 -19 -19 -19 -19 -19 -19 -19 -20 -20 -21 -21 -21 -21 -20 -21 -21 -21 -21 -21 -21 -22 -22 -22 -22 -21
-18 -18 -18 -17 -18 -18 -18 -18 -18 -18 -18 -19 -19 -19 -20 -20 -20 -20 -20 -20 -19 -19 -19 -20 -20 -21 -21 -21 -21 -21 -21 -21 -21 -21 -20 -20 -21 -21 -22 -22 -22 -22 -22
-18 -19 -19 -19 -18 -19 -19 -19 -19 -19 -20 -20 -20 -20 -20 -20 -20 -20 -20 -20 -20 -20 -20 -20 -21 -21 -21 -21 -21 -21 -21 -21 -21 -21 -21 -22 -22 -23 -23 -23 -23 -22 -22
-19 -20 -20 -20 -20 -19 -19 -19 -19 -20 -21 -21 -21 -21 -21 -21 -21 -20 -20 -20 -20 -21 -21 -21 -21 -21 -21 -21 -21 -21 -22 -22 -21 -22 -22 -23 -23 -23 -23 -24 -24 -23 -23
-20 -21 -20 -20 -20 -20 -21 -20 -20 -21 -22 -21 -21 -21 -21 -21 -21 -21 -21 -21 -21 -21 -21 -21 -21 -21 -21 -22 -22 -22 -22 -22 -23 -23 -23 -24 -24 -24 -24 -24 -24 -24 -24
-21 -21 -20 -21 -21 -21 -22 -22 -21 -22 -22 -22 -22 -22 -22 -22 -21 -21 -21 -22 -22 -21 -22 -22 -22 -22 -22 -22 -23 -23 -22 -23 -23 -24 -24 -24 -24 -25 -25 -25 -25 -24 -24
-21 -21 -21 -21 -21 -22 -22 -22 -22 -23 -23 -22 -23 -23 -22 -22 -22 -22 -22 -22 -22 -22 -22 -22 -22 -22 -22 -23 -23 -23 -23 -24 -24 -24 -24 -24 -25 -25 -25 -25 -25 -25 -25
-21 -21 -22 -21 -21 -22 -22 -23 -23 -24 -24 -24 -23 -23 -22 -22 -22 -23 -22 -22 -22 -22 -22 -22 -23 -23 -23 -23 -23 -23 -24 -24 -24 -24 -24 -25 -25 -25 -25 -25 -25 -25 -25
-22 -21 -22 -22 -22 -22 -23 -23 -23 -23 -24 -23 -23 -23 -22 -23 -23 -23 -23 -22 -22 -22 -23 -23 -23 -23 -24 -24 -24 -24 -24 -24 -24 -25 -25 -25 -25 -25 -25 -25 -25 -25 -25
-22 -22 -22 -22 -22 -22 -23 -23 -24 -23 -24 -24 -23 -23 -23 -23 -23 -23 -23 -23 -23 -23 -23 -23 -24 -24 -24 -24 -24 -24 -24 -24 -25 -25 -25 -25 -25 -25 -25 -25 -25 -25 -24
-23 -22 -21 -22 -22 -23 -23 -23 -23 -23 -23 -23 -23 -23 -23 -23 -23 -23 -24 -23 -23 -23 -24 -24 -25 -24 -24 -24 -24 -25 -25 -25 -25 -25 -25 -25 -25 -25 -25 -25 -25 -25 -24
-23 -22 -22 -22 -23 -23 -23 -23 -23 -23 -23 -23 -23 -23 -23 -23 -23 -23 -23 -23 -24 -24 -24 -24 -25 -25 -25 -25 -25 -25 -25 -25 -25 -25 -25 -25 -25 -25 -25 -25 -25 -25 -25
-23 -23 -23 -23 -23 -23 -23 -23 -23 -23 -23 -23 -23 -23 -23 -23 -23 -23 -23 -24 -24 -24 -25 -25 -25 -25 -25 -25 -25 -25 -25 -25 -25 -25 -25 -25 -25 -25 -25 -25 -25 -25 -25
-24 -23 -23 -23 -24 -23 -24 -24 -24 -24 -24 -23 -23 -23 -23 -23 -23 -23 -24 -24 -24 -24 -25 -25 -25 -25 -25 -25 -25 -25 -25 -25 -25 -25 -25 -25 -25 -26 -25 -26 -25 -25 -25
-24 -24 -24 -24 -24 -24 -24 -24 -23 -23 -23 -23 -23 -23 -24 -24 -23 -24 -24 -24 -24 -24 -24 -25 -25 -25 -25 -25 -25 -25 -25 -25 -25 -26 -26 -25 -26 -26 -25 -25 -25 -25 -26
-24 -24 -24 -24 -24 -24 -23 -23 -23 -23 -23 -23 -23 -24 -24 -24 -24 -24 -24 -24 -24 -24 -24 -24 -25 -25 -25 -25 -25 -25 -25 -25 -26 -26 -26 -26 -26 -26 -26 -26 -26 -26 -26
-24 -24 -24 -24 -24 -24 -24 -23 -24 -24 -24 -24 -24 -24 -24 -24 -24 -24 -24 -24 -24 -24 -24 -24 -24 -25 -25 -25 -25 -25 -25 -26 -26 -26 -26 -26 -26 -26 -26 -26 -26 -26 -26
-24 -24 -24 -24 -24 -24 -24 -24 -24 -24 -24 -24 -24 -24 -24 -24 -24 -24 -24 -24 -24 -24 -24 -24 -24 -25 -25 -25 -25 -25 -26 -26 -26 -26 -26 -26 -26 -26 -26 -26 -26 -26 -26
-24 -24 -24 -24 -24 -24 -24 -24 -24 -24 -25 -24 -24 -24 -24 -24 -24 -24 -24 -24 -24 -24 -24 -24 -24 -24 -25 -25 -25 -25 -26 -26 -26 -26 -26 -26 -26 -26 -26 -26 -27 -27 -27
-24 -24 -24 -24 -24 -24 -24 -24 -24 -24 -25 -24 -24 -24 -24 -24 -24 -24 -24 -24 -24 -24 -24 -24 -24 -25 -25 -25 -25 -26 -26 -26 -26 -26 -27 -27 -27 -27 -27 -27 -27 -27 -27
-24 -24 -24 -24 -24 -24 -24 -24 -24 -24 -24 -24 -24 -24 -24 -24 -24 -25 -25 -24 -24 -24 -24 -25 -25 -25 -25 -25 -26 -26 -26 -26 -27 -27 -27 -27 -27 -27 -27 -27 -27 -28 -28

GFSMW_500_temp_189.txt.gz
Temp
-13 -12 -11 -12 -14 -13 -13 -14 -14 -14 -14 -14 -14 -15 -15 -15 -15 -15 -16 -16 -16 -16 -17 -17 -17 -17 -16 -16 -16 -16 -16 -16 -16 -16 -16 -16 -16 -16 -16 -16 -15 -15 -15
-13 -12 -12 -13 -14 -14 -13 -14 -14 -14 -14 -15 -15 -15 -16 -16 -16 -17 -17 -17 -17 -17 -17 -17 -17 -17 -17 -17 -17 -17 -16 -17 -17 -17 -17 -17 -16 -16 -16 -16 -16 -16 -17
-14 -13 -13 -15 -15 -15 -14 -14 -14 -14 -14 -15 -16 -16 -16 -16 -17 -17 -17 -17 -17 -17 -18 -17 -18 -18 -18 -18 -18 -18 -17 -17 -18 -17 -17 -17 -17 -17 -16 -17 -18 -19 -19
-15 -15 -15 -16 -17 -17 -16 -16 -16 -16 -15 -16 -16 -16 -16 -17 -17 -18 -18 -18 -18 -18 -17 -18 -18 -19 -19 -19 -19 -19 -18 -18 -18 -18 -18 -19 -19 -19 -19 -20 -20 -19 -19
-16 -16 -16 -17 -17 -17 -17 -17 -17 -17 -17 -17 -17 -17 -17 -17 -18 -18 -18 -18 -18 -18 -19 -19 -19 -20 -19 -19 -19 -19 -19 -19 -19 -19 -19 -20 -21 -20 -20 -20 -20 -19 -19
-17 -17 -17 -17 -18 -18 -18 -18 -18 -18 -18 -18 -18 -17 -18 -18 -18 -18 -19 -19 -20 -20 -20 -20 -20 -20 -20 -20 -20 -19 -19 -19 -20 -20 -20 -21 -21 -21 -20 -20 -20 -20 -20
-17 -17 -17 -17 -18 -18 -19 -19 -19 -19 -19 -19 -19 -18 -19 -19 -19 -19 -20 -20 -21 -21 -21 -21 -21 -21 -21 -21 -20 -20 -20 -20 -20 -21 -21 -21 -21 -21 -21 -21 -21 -21 -22
-18 -18 -18 -18 -18 -18 -19 -19 -19 -19 -19 -20 -19 -19 -19 -19 -19 -20 -20 -21 -21 -20 -22 -22 -21 -21 -21 -21 -21 -21 -21 -21 -21 -21 -21 -21 -21 -21 -22 -22 -21 -22 -23
-18 -18 -18 -18 -18 -19 -20 -20 -20 -20 -20 -20 -20 -20 -20 -21 -20 -21 -21 -21 -22 -22 -22 -22 -22 -22 -22 -22 -22 -21 -21 -22 -22 -22 -21 -21 -22 -22 -22 -22 -22 -23 -23
-19 -19 -19 -19 -20 -19 -20 -21 -20 -20 -20 -21 -21 -21 -21 -21 -21 -21 -22 -23 -23 -23 -23 -23 -23 -22 -22 -22 -22 -22 -22 -22 -22 -22 -22 -23 -22 -23 -23 -23 -23 -24 -24
-19 -20 -20 -20 -20 -21 -21 -22 -21 -20 -21 -21 -21 -21 -21 -21 -22 -22 -23 -23 -24 -24 -24 -23 -23 -23 -22 -22 -22 -22 -22 -23 -23 -23 -23 -23 -23 -23 -23 -24 -24 -24 -24
-21 -21 -20 -20 -20 -21 -22 -22 -21 -21 -21 -22 -21 -22 -22 -22 -23 -23 -23 -23 -23 -23 -24 -23 -23 -23 -23 -22 -22 -23 -23 -23 -23 -23 -23 -23 -23 -23 -24 -24 -24 -24 -24
-21 -22 -21 -21 -21 -22 -22 -21 -22 -22 -22 -22 -22 -22 -23 -23 -23 -23 -23 -23 -24 -24 -24 -24 -23 -23 -23 -23 -23 -23 -23 -24 -24 -24 -24 -24 -24 -24 -24 -24 -24 -24 -24
-23 -23 -23 -22 -22 -22 -22 -23 -23 -22 -22 -22 -22 -23 -23 -23 -22 -24 -24 -24 -24 -24 -24 -24 -24 -23 -23 -23 -24 -24 -24 -24 -24 -24 -24 -24 -24 -24 -24 -24 -24 -24 -24
-23 -24 -24 -24 -24 -23 -23 -23 -23 -23 -22 -23 -23 -23 -23 -23 -24 -24 -24 -24 -24 -24 -24 -24 -24 -24 -24 -24 -24 -24 -25 -25 -25 -24 -24 -25 -25 -25 -25 -25 -25 -24 -24
-24 -24 -24 -24 -24 -24 -23 -23 -23 -23 -23 -23 -22 -23 -23 -23 -24 -24 -25 -24 -24 -24 -24 -24 -24 -24 -24 -24 -24 -25 -26 -25 -25 -25 -25 -25 -25 -25 -25 -25 -25 -24 -24
-23 -23 -24 -24 -23 -24 -23 -23 -23 -23 -23 -23 -23 -23 -24 -24 -24 -24 -24 -24 -24 -24 -24 -24 -24 -24 -24 -25 -25 -25 -26 -26 -25 -25 -25 -25 -25 -25 -25 -25 -25 -25 -24
-23 -23 -24 -23 -23 -23 -23 -23 -23 -24 -24 -24 -24 -24 -24 -24 -25 -24 -24 -24 -24 -24 -24 -24 -24 -24 -25 -25 -25 -26 -26 -26 -25 -25 -25 -25 -25 -25 -25 -25 -25 -25 -25
-22 -22 -23 -22 -23 -24 -24 -24 -24 -24 -24 -24 -24 -24 -24 -24 -24 -24 -24 -24 -24 -24 -24 -24 -24 -25 -25 -25 -26 -26 -25 -26 -25 -25 -25 -25 -25 -25 -25 -25 -25 -25 -25
-23 -23 -23 -23 -23 -24 -24 -24 -24 -24 -24 -24 -24 -24 -24 -24 -24 -24 -24 -24 -24 -24 -24 -24 -24 -25 -25 -25 -25 -26 -26 -26 -26 -25 -25 -25 -25 -25 -25 -25 -25 -25 -25
-24 -24 -24 -24 -24 -24 -24 -24 -24 -24 -24 -24 -24 -24 -23 -23 -24 -24 -24 -24 -24 -24 -24 -24 -24 -24 -25 -25 -25 -25 -25 -26 -26 -26 -26 -25 -25 -26 -26 -26 -25 -25 -25
-24 -24 -24 -24 -24 -24 -24 -24 -24 -24 -24 -24 -23 -23 -23 -24 -24 -24 -24 -24 -24 -24 -24 -24 -25 -25 -25 -25 -25 -25 -25 -25 -25 -26 -25 -25 -26 -26 -26 -26 -26 -26 -26
-24 -24 -24 -24 -24 -24 -24 -24 -24 -24 -24 -24 -24 -23 -24 -24 -24 -24 -24 -24 -24 -25 -25 -25 -25 -25 -25 -24 -25 -25 -25 -25 -25 -25 -25 -26 -26 -26 -26 -26 -26 -26 -26
-24 -24 -24 -24 -24 -24 -24 -24 -24 -24 -24 -24 -24 -24 -24 -24 -24 -24 -24 -24 -25 -25 -25 -25 -25 -25 -25 -24 -25 -24 -25 -25 -25 -25 -26 -26 -26 -26 -26 -26 -26 -26 -26
-24 -24 -24 -24 -24 -24 -24 -24 -24 -24 -24 -24 -24 -24 -24 -24 -25 -25 -25 -25 -24 -24 -25 -25 -25 -25 -25 -25 -24 -24 -25 -25 -25 -26 -26 -26 -26 -26 -26 -26 -26 -26 -26
-24 -24 -24 -24 -24 -24 -24 -24 -24 -24 -24 -24 -24 -24 -24 -24 -25 -25 -25 -25 -25 -25 -25 -25 -25 -25 -25 -25 -25 -25 -25 -25 -25 -26 -26 -26 -26 -26 -26 -26 -26 -27 -27

GFSMW_500_temp_195.txt.gz
Temp
-10 -10 -11 -12 -13 -13 -14 -14 -14 -14 -14 -14 -14 -14 -15 -15 -15 -15 -16 -16 -16 -16 -17 -17 -17 -17 -17 -17 -18 -17 -18 -18 -17 -17 -17 -16 -16 -16 -17 -17 -17 -17 -17
-11 -11 -12 -12 -12 -13 -13 -14 -15 -14 -14 -14 -15 -15 -15 -16 -16 -16 -16 -16 -16 -16 -17 -17 -17 -17 -18 -18 -18 -18 -18 -18 -18 -18 -18 -17 -17 -17 -18 -18 -18 -18 -18
-12 -12 -13 -12 -13 -13 -14 -15 -15 -16 -15 -16 -16 -16 -16 -17 -16 -16 -16 -16 -16 -17 -18 -18 -18 -18 -18 -18 -18 -18 -18 -19 -19 -18 -18 -18 -18 -18 -18 -19 -19 -19 -19
-13 -13 -13 -13 -14 -14 -15 -15 -16 -16 -16 -16 -16 -17 -17 -17 -17 -17 -17 -16 -17 -17 -17 -17 -18 -19 -19 -19 -19 -19 -19 -20 -20 -20 -19 -19 -19 -19 -19 -19 -19 -20 -20
-14 -14 -14 -15 -14 -14 -15 -16 -16 -16 -16 -15 -16 -17 -17 -18 -18 -17 -17 -17 -17 -17 -18 -18 -18 -19 -20 -20 -20 -20 -20 -20 -21 -21 -21 -20 -20 -20 -20 -20 -20 -20 -20
-15 -15 -16 -16 -16 -16 -16 -16 -16 -16 -16 -15 -16 -17 -17 -18 -18 -18 -18 -18 -18 -18 -18 -19 -19 -20 -20 -20 -20 -20 -20 -21 -21 -21 -21 -21 -21 -20 -20 -21 -21 -21 -21
-14 -15 -16 -17 -17 -17 -17 -16 -16 -15 -16 -16 -17 -17 -18 -18 -19 -19 -19 -19 -19 -19 -20 -20 -20 -20 -20 -20 -21 -22 -22 -22 -22 -22 -22 -22 -21 -21 -21 -21 -21 -21 -21
-15 -16 -16 -17 -17 -17 -16 -15 -16 -16 -17 -17 -17 -18 -19 -19 -19 -20 -20 -20 -20 -20 -21 -21 -21 -21 -21 -22 -22 -22 -22 -22 -23 -22 -22 -22 -22 -21 -22 -22 -22 -21 -22
-17 -17 -17 -18 -18 -18 -17 -17 -17 -17 -17 -18 -18 -19 -19 -20 -20 -21 -22 -21 -21 -21 -21 -21 -21 -22 -21 -22 -22 -23 -23 -23 -23 -22 -22 -22 -22 -22 -22 -22 -22 -22 -22
-20 -19 -18 -19 -19 -18 -19 -18 -18 -19 -19 -19 -20 -20 -20 -20 -20 -21 -21 -22 -22 -21 -21 -21 -22 -22 -22 -23 -23 -23 -23 -23 -23 -23 -22 -23 -23 -23 -23 -23 -23 -23 -23
-21 -21 -20 -20 -19 -20 -19 -18 -19 -19 -20 -20 -21 -20 -20 -20 -20 -22 -22 -22 -22 -22 -22 -22 -22 -23 -23 -23 -23 -24 -24 -24 -24 -23 -23 -23 -23 -23 -23 -23 -23 -23 -23
-21 -21 -21 -20 -20 -20 -20 -21 -21 -20 -21 -21 -22 -21 -21 -21 -21 -22 -23 -22 -22 -22 -22 -22 -23 -23 -23 -24 -24 -24 -24 -24 -24 -23 -24 -24 -24 -24 -24 -24 -24 -24 -24
-21 -21 -21 -21 -21 -22 -21 -22 -22 -22 -22 -23 -23 -22 -22 -22 -22 -22 -23 -23 -23 -22 -23 -23 -23 -24 -24 -24 -24 -24 -24 -24 -24 -24 -24 -24 -24 -24 -24 -24 -24 -24 -24
-22 -22 -22 -22 -22 -22 -23 -22 -22 -22 -23 -23 -24 -24 -23 -23 -23 -23 -23 -23 -23 -22 -23 -23 -23 -24 -24 -24 -24 -24 -24 -24 -24 -24 -24 -24 -25 -25 -24 -25 -25 -24 -24
-23 -23 -23 -24 -23 -23 -23 -23 -23 -23 -23 -23 -24 -24 -24 -24 -23 -23 -24 -23 -23 -23 -23 -23 -23 -23 -24 -24 -24 -24 -24 -25 -24 -25 -25 -25 -25 -25 -25 -25 -25 -25 -25
-24 -24 -23 -23 -23 -24 -23 -23 -23 -23 -23 -23 -23 -24 -24 -24 -24 -23 -24 -24 -23 -23 -23 -23 -23 -24 -24 -24 -24 -24 -24 -25 -25 -25 -25 -25 -26 -25 -25 -25 -25 -25 -25
-24 -24 -23 -23 -23 -23 -23 -23 -23 -23 -23 -23 -23 -24 -24 -24 -24 -24 -24 -24 -24 -24 -24 -23 -23 -24 -24 -24 -24 -24 -24 -25 -25 -25 -25 -26 -26 -26 -26 -26 -26 -26 -26
-23 -24 -23 -23 -23 -23 -23 -22 -22 -22 -22 -23 -23 -24 -24 -24 -24 -24 -24 -24 -25 -24 -24 -24 -24 -24 -24 -24 -24 -24 -24 -25 -25 -25 -25 -26 -27 -27 -26 -26 -26 -26 -26
-24 -24 -24 -23 -23 -23 -23 -23 -23 -22 -23 -23 -24 -24 -24 -24 -24 -24 -23 -24 -24 -24 -24 -24 -24 -24 -24 -24 -24 -24 -25 -25 -25 -26 -26 -27 -27 -27 -26 -26 -26 -26 -26
-24 -24 -24 -23 -23 -23 -23 -23 -23 -23 -23 -24 -24 -24 -24 -24 -24 -24 -24 -24 -24 -24 -24 -24 -24 -24 -24 -24 -25 -25 -25 -25 -25 -26 -27 -26 -27 -27 -27 -26 -26 -26 -26
-24 -23 -24 -24 -24 -24 -23 -23 -23 -23 -23 -24 -24 -24 -24 -24 -24 -24 -24 -24 -24 -24 -24 -24 -24 -24 -24 -24 -25 -25 -25 -25 -25 -25 -26 -26 -27 -26 -26 -26 -26 -26 -26
-24 -24 -24 -24 -24 -24 -24 -24 -23 -24 -24 -24 -24 -24 -24 -24 -24 -24 -24 -24 -24 -24 -24 -24 -24 -24 -24 -25 -25 -25 -25 -25 -25 -25 -26 -26 -26 -26 -26 -26 -26 -26 -26
-24 -25 -24 -24 -24 -24 -24 -24 -24 -24 -24 -24 -24 -24 -24 -24 -24 -24 -24 -24 -24 -24 -25 -24 -25 -24 -24 -25 -25 -25 -25 -25 -26 -25 -26 -26 -26 -26 -26 -26 -26 -26 -26
-25 -24 -25 -25 -25 -24 -24 -24 -24 -24 -24 -24 -24 -24 -24 -24 -24 -24 -24 -24 -24 -25 -25 -25 -25 -25 -25 -25 -25 -25 -25 -25 -26 -26 -26 -26 -26 -26 -26 -26 -26 -26 -26
-25 -25 -25 -24 -24 -24 -24 -24 -24 -24 -24 -24 -24 -24 -24 -24 -24 -24 -24 -24 -24 -25 -25 -25 -25 -25 -25 -25 -25 -25 -26 -26 -26 -26 -27 -27 -26 -27 -27 -27 -27 -26 -26
-25 -25 -24 -24 -24 -24 -24 -24 -24 -24 -24 -24 -24 -24 -24 -24 -24 -25 -25 -25 -25 -25 -25 -25 -25 -25 -25 -25 -25 -25 -26 -26 -26 -26 -27 -27 -27 -26 -26 -26 -26 -26 -27

GFSMW_500_temp_198.txt.gz
Temp
-11 -11 -12 -12 -12 -13 -13 -14 -14 -14 -15 -15 -15 -14 -14 -15 -15 -15 -15 -16 -16 -16 -17 -17 -17 -17 -18 -18 -18 -18 -18 -18 -17 -18 -18 -17 -17 -17 -17 -17 -17 -17 -18
-11 -12 -11 -12 -12 -13 -13 -14 -14 -15 -15 -15 -15 -16 -16 -16 -16 -16 -16 -16 -16 -16 -17 -17 -17 -18 -18 -18 -18 -18 -18 -18 -18 -18 -18 -18 -18 -18 -18 -18 -18 -18 -18
-12 -13 -12 -13 -13 -13 -13 -13 -14 -15 -15 -16 -16 -16 -17 -17 -17 -17 -17 -16 -17 -16 -16 -16 -16 -17 -17 -18 -18 -18 -18 -18 -17 -18 -18 -18 -19 -19 -19 -19 -19 -19 -19
-13 -12 -13 -13 -13 -13 -14 -14 -14 -15 -15 -16 -17 -16 -16 -16 -16 -17 -17 -17 -17 -16 -16 -17 -17 -17 -17 -17 -18 -18 -18 -18 -18 -18 -19 -19 -19 -19 -19 -20 -20 -20 -20
-14 -13 -13 -13 -13 -14 -14 -15 -16 -16 -16 -16 -16 -16 -16 -16 -16 -16 -17 -18 -18 -17 -17 -17 -17 -17 -18 -18 -18 -18 -19 -19 -19 -20 -20 -20 -20 -20 -20 -21 -21 -21 -21
-13 -13 -14 -14 -14 -14 -15 -15 -16 -16 -17 -16 -16 -15 -16 -15 -16 -18 -18 -18 -18 -19 -18 -18 -18 -18 -18 -18 -19 -19 -20 -20 -20 -20 -21 -21 -21 -21 -22 -22 -21 -21 -21
-13 -13 -14 -15 -16 -16 -17 -17 -17 -17 -17 -16 -15 -16 -17 -17 -18 -18 -18 -18 -19 -19 -19 -19 -19 -19 -19 -19 -19 -20 -20 -20 -20 -21 -21 -21 -22 -22 -23 -22 -22 -22 -22
-13 -14 -14 -15 -16 -17 -17 -17 -17 -17 -15 -16 -17 -17 -17 -18 -19 -19 -19 -19 -19 -20 -20 -20 -20 -20 -20 -20 -20 -20 -21 -21 -21 -22 -21 -21 -22 -23 -23 -22 -22 -22 -22
-15 -15 -16 -17 -18 -18 -18 -19 -19 -18 -17 -18 -18 -19 -19 -20 -20 -20 -20 -20 -21 -21 -21 -21 -21 -20 -20 -20 -21 -22 -22 -21 -21 -22 -22 -23 -23 -23 -23 -23 -23 -22 -22
-17 -18 -18 -19 -19 -20 -19 -19 -19 -18 -17 -20 -19 -20 -20 -20 -21 -21 -21 -21 -20 -21 -22 -22 -22 -21 -21 -21 -21 -21 -22 -22 -22 -23 -23 -23 -23 -23 -23 -23 -23 -23 -23
-20 -20 -21 -20 -20 -20 -20 -20 -20 -20 -20 -20 -20 -20 -21 -22 -21 -22 -21 -21 -21 -21 -22 -22 -22 -22 -21 -21 -22 -22 -22 -22 -22 -23 -24 -23 -23 -23 -23 -23 -23 -23 -24
-21 -21 -21 -21 -21 -21 -20 -20 -21 -21 -21 -22 -22 -22 -21 -22 -22 -22 -22 -22 -22 -22 -22 -22 -22 -22 -21 -22 -22 -22 -22 -22 -23 -24 -24 -24 -24 -23 -24 -24 -24 -24 -24
-22 -23 -22 -22 -22 -22 -22 -22 -22 -21 -21 -21 -22 -23 -23 -23 -22 -22 -22 -22 -22 -22 -22 -22 -23 -22 -22 -23 -23 -22 -22 -23 -23 -24 -24 -24 -24 -24 -24 -24 -25 -24 -24
-22 -23 -23 -22 -22 -23 -23 -22 -22 -22 -22 -22 -23 -22 -23 -23 -23 -23 -23 -23 -23 -23 -22 -23 -23 -22 -23 -23 -24 -23 -23 -24 -24 -24 -24 -24 -24 -24 -25 -25 -25 -25 -25
-23 -23 -23 -24 -24 -23 -23 -23 -22 -22 -22 -22 -23 -23 -23 -23 -23 -23 -24 -23 -23 -23 -23 -23 -23 -23 -23 -24 -24 -24 -23 -24 -24 -24 -24 -24 -25 -25 -25 -25 -25 -25 -25
-24 -23 -23 -23 -24 -23 -23 -23 -23 -23 -23 -23 -23 -24 -23 -23 -23 -23 -23 -23 -23 -23 -23 -23 -23 -23 -23 -24 -23 -24 -23 -24 -24 -24 -24 -25 -25 -25 -25 -26 -26 -26 -26
-24 -24 -24 -23 -24 -23 -23 -23 -23 -23 -23 -23 -23 -24 -24 -24 -24 -24 -23 -23 -24 -23 -23 -24 -23 -23 -23 -24 -24 -24 -24 -24 -24 -25 -25 -25 -25 -25 -26 -26 -26 -26 -26
-24 -24 -24 -24 -24 -23 -23 -23 -23 -23 -23 -23 -23 -23 -23 -23 -23 -23 -24 -23 -24 -24 -23 -24 -24 -24 -24 -24 -24 -24 -24 -24 -25 -25 -25 -25 -25 -26 -26 -27 -27 -26 -26
-25 -25 -24 -24 -23 -23 -23 -23 -23 -23 -23 -23 -23 -23 -23 -23 -24 -24 -24 -24 -24 -24 -24 -24 -24 -24 -24 -24 -25 -24 -24 -24 -25 -25 -25 -25 -25 -26 -26 -27 -27 -27 -27
-25 -25 -24 -24 -24 -23 -24 -24 -24 -24 -24 -23 -23 -23 -24 -24 -24 -24 -24 -24 -24 -25 -25 -24 -24 -25 -25 -25 -25 -24 -24 -24 -24 -25 -25 -25 -25 -26 -27 -27 -28 -27 -27
-25 -24 -24 -24 -23 -23 -24 -24 -24 -24 -24 -23 -24 -24 -24 -24 -24 -24 -24 -24 -24 -24 -24 -24 -24 -25 -24 -24 -24 -25 -24 -24 -24 -25 -25 -25 -25 -26 -27 -27 -28 -27 -27
-25 -25 -25 -25 -24 -24 -24 -24 -24 -24 -24 -24 -24 -24 -24 -24 -24 -24 -24 -24 -24 -24 -24 -24 -24 -24 -24 -24 -25 -25 -25 -25 -25 -25 -25 -25 -25 -26 -26 -27 -27 -27 -27
-25 -25 -25 -25 -25 -25 -25 -25 -24 -24 -24 -24 -24 -24 -24 -24 -24 -24 -24 -24 -24 -24 -24 -24 -24 -24 -24 -24 -25 -25 -25 -25 -25 -25 -25 -25 -25 -26 -26 -27 -27 -27 -27
-25 -25 -25 -25 -25 -25 -25 -25 -25 -25 -25 -25 -24 -24 -24 -24 -24 -24 -24 -24 -24 -24 -24 -24 -24 -25 -25 -24 -25 -25 -25 -25 -25 -25 -25 -25 -26 -26 -27 -27 -27 -27 -27
-25 -25 -25 -24 -25 -25 -24 -24 -25 -24 -24 -25 -25 -24 -24 -24 -24 -24 -24 -24 -24 -24 -24 -24 -25 -25 -25 -25 -25 -25 -25 -25 -25 -26 -26 -26 -26 -27 -27 -27 -27 -27 -27
-25 -25 -25 -25 -25 -25 -25 -25 -24 -25 -24 -24 -24 -25 -25 -25 -24 -25 -25 -25 -25 -25 -25 -25 -25 -25 -25 -26 -26 -26 -26 -26 -26 -26 -26 -27 -27 -27 -27 -27 -27 -27 -27

GFSMW_500_temp_201.txt.gz
Temp
-11 -12 -12 -13 -13 -13 -13 -13 -14 -14 -14 -14 -14 -14 -14 -15 -14 -14 -15 -15 -16 -16 -16 -16 -17 -17 -17 -17 -17 -17 -17 -17 -17 -17 -16 -16 -16 -16 -16 -17 -17 -17 -16
-11 -12 -12 -12 -12 -13 -13 -13 -14 -14 -14 -15 -15 -15 -15 -15 -15 -15 -16 -16 -16 -16 -16 -17 -17 -17 -17 -17 -17 -18 -18 -18 -17 -17 -16 -16 -16 -15 -16 -16 -16 -17 -16
-12 -12 -12 -12 -13 -13 -13 -13 -14 -14 -14 -14 -15 -15 -15 -15 -16 -16 -16 -16 -16 -17 -17 -17 -18 -18 -17 -17 -17 -17 -18 -18 -17 -17 -17 -16 -17 -17 -16 -16 -16 -17 -18
-12 -13 -13 -13 -13 -13 -13 -14 -14 -14 -14 -14 -14 -15 -15 -16 -16 -17 -17 -17 -16 -17 -17 -18 -18 -19 -17 -18 -18 -17 -18 -17 -18 -18 -18 -17 -17 -18 -18 -18 -18 -18 -19
-14 -14 -14 -14 -14 -14 -14 -14 -14 -15 -15 -15 -15 -16 -16 -17 -17 -16 -16 -16 -17 -16 -18 -19 -19 -19 -18 -18 -18 -18 -18 -18 -18 -18 -18 -18 -19 -19 -19 -19 -19 -20 -20
-13 -14 -14 -14 -14 -14 -14 -14 -15 -15 -16 -16 -16 -16 -16 -17 -16 -16 -17 -16 -16 -17 -19 -19 -18 -19 -19 -19 -18 -18 -18 -18 -18 -19 -19 -19 -19 -20 -20 -20 -20 -21 -21
-14 -14 -13 -13 -13 -13 -13 -14 -16 -16 -17 -17 -17 -17 -16 -16 -16 -17 -17 -17 -17 -18 -18 -18 -19 -19 -20 -19 -19 -19 -19 -19 -19 -20 -20 -20 -20 -20 -21 -21 -21 -21 -22
-14 -13 -13 -13 -13 -13 -13 -13 -16 -18 -18 -18 -17 -17 -17 -17 -17 -18 -18 -18 -18 -18 -19 -19 -21 -21 -21 -20 -20 -19 -20 -20 -20 -20 -20 -20 -20 -20 -21 -22 -21 -22 -23
-14 -14 -14 -14 -15 -16 -16 -17 -18 -18 -19 -19 -18 -18 -18 -18 -18 -19 -19 -20 -20 -20 -20 -20 -20 -20 -21 -21 -21 -21 -21 -21 -21 -21 -22 -22 -22 -22 -21 -22 -22 -22 -23
-14 -15 -16 -17 -17 -18 -19 -19 -20 -20 -21 -20 -19 -18 -18 -19 -20 -21 -20 -20 -21 -21 -21 -20 -21 -21 -21 -22 -22 -22 -21 -21 -22 -22 -22 -22 -22 -23 -20 -22 -23 -23 -23
-14 -15 -18 -20 -20 -20 -21 -21 -21 -21 -21 -21 -20 -20 -21 -21 -22 -22 -22 -22 -22 -21 -21 -21 -21 -21 -22 -22 -22 -22 -22 -21 -22 -22 -23 -23 -23 -23 -21 -23 -23 -23 -23
-17 -18 -19 -21 -21 -21 -22 -22 -21 -22 -22 -21 -21 -21 -22 -22 -22 -22 -23 -23 -23 -22 -22 -21 -21 -21 -21 -22 -22 -22 -22 -23 -22 -23 -23 -23 -23 -22 -23 -23 -23 -23 -23
-20 -21 -22 -22 -22 -22 -22 -23 -23 -22 -22 -22 -22 -22 -22 -22 -22 -23 -23 -23 -23 -23 -23 -22 -22 -22 -22 -23 -23 -23 -22 -23 -23 -23 -23 -23 -23 -23 -23 -23 -23 -24 -24
-22 -23 -23 -23 -23 -23 -23 -23 -23 -23 -23 -22 -22 -22 -23 -23 -23 -23 -23 -23 -23 -23 -23 -23 -23 -23 -22 -23 -23 -23 -23 -23 -23 -24 -23 -23 -23 -23 -24 -24 -24 -24 -24
-23 -23 -23 -24 -24 -24 -24 -24 -24 -24 -24 -23 -23 -24 -23 -23 -23 -23 -23 -24 -24 -24 -23 -23 -23 -22 -22 -23 -23 -23 -23 -24 -23 -24 -23 -23 -23 -23 -24 -24 -24 -24 -25
-23 -24 -24 -24 -24 -24 -24 -24 -24 -24 -23 -23 -23 -23 -23 -23 -23 -23 -24 -24 -24 -24 -24 -24 -23 -23 -23 -23 -23 -23 -23 -23 -24 -24 -24 -24 -24 -24 -24 -24 -25 -25 -25
-24 -24 -24 -24 -24 -24 -23 -23 -23 -23 -23 -23 -23 -24 -23 -23 -24 -24 -24 -23 -24 -24 -23 -23 -23 -23 -23 -24 -23 -24 -23 -23 -24 -23 -24 -24 -24 -24 -24 -25 -25 -25 -26
-24 -24 -24 -24 -24 -24 -24 -24 -23 -23 -23 -23 -23 -23 -23 -23 -23 -23 -24 -24 -24 -24 -23 -24 -24 -23 -23 -24 -24 -24 -24 -24 -23 -23 -24 -24 -24 -24 -25 -25 -25 -25 -26
-24 -24 -24 -24 -24 -24 -24 -24 -24 -24 -24 -24 -24 -24 -23 -23 -23 -24 -24 -24 -24 -24 -24 -24 -24 -24 -23 -24 -24 -24 -24 -24 -24 -24 -24 -24 -25 -25 -25 -25 -25 -26 -26
-24 -24 -24 -24 -24 -24 -24 -23 -23 -23 -24 -24 -24 -24 -24 -24 -24 -24 -24 -23 -24 -24 -24 -24 -24 -24 -24 -24 -24 -24 -25 -25 -25 -24 -24 -25 -25 -25 -25 -25 -25 -26 -27
-25 -24 -25 -24 -24 -24 -24 -24 -24 -24 -24 -24 -24 -24 -24 -24 -24 -24 -24 -24 -24 -24 -24 -24 -24 -24 -24 -24 -24 -25 -25 -25 -24 -24 -25 -25 -25 -25 -25 -25 -25 -26 -27
-25 -25 -25 -25 -25 -25 -24 -25 -25 -24 -24 -24 -24 -24 -24 -24 -24 -24 -24 -24 -24 -24 -24 -24 -24 -24 -24 -24 -24 -24 -24 -24 -24 -25 -25 -25 -25 -25 -25 -25 -25 -26 -27
-25 -25 -25 -25 -25 -25 -24 -25 -25 -25 -25 -24 -24 -25 -25 -24 -24 -24 -24 -24 -24 -24 -24 -24 -24 -24 -24 -24 -24 -25 -25 -25 -25 -25 -25 -25 -25 -25 -25 -25 -25 -26 -27
-25 -25 -25 -25 -25 -25 -24 -25 -25 -25 -25 -25 -25 -25 -25 -25 -25 -25 -25 -25 -24 -24 -24 -25 -25 -25 -24 -24 -25 -25 -25 -25 -25 -25 -25 -25 -25 -25 -25 -25 -26 -26 -26
-25 -25 -25 -25 -25 -25 -25 -25 -25 -25 -25 -25 -25 -25 -25 -25 -25 -25 -25 -24 -24 -24 -24 -25 -25 -24 -24 -25 -25 -25 -25 -25 -25 -25 -25 -25 -26 -26 -26 -26 -26 -26 -27
-26 -26 -26 -26 -25 -25 -25 -25 -25 -25 -25 -25 -25 -24 -25 -25 -25 -25 -25 -25 -24 -24 -25 -25 -25 -25 -25 -25 -25 -25 -25 -25 -25 -25 -26 -26 -26 -26 -26 -26 -26 -27 -27